Weather in Vladimirovo

Russia / Kaliningrad Oblast     54°33′30″N   20°31′54″E
temp.,
°C
wind,
m/s
gust,
m/s
humid.,
%
clouds,
%
prec.,
mm/h
press.,
hPa
HPBL,
m
22 april, thu
thu2223:00+5wsw41080100 0.0 1009395
02:00+5sw51067100 0.1 1009708
05:00+3sw5117947 0.0 1008485
08:00+5wsw711728 0.0 1008845
11:00+7wsw8137398 0.5 10091635
14:00+5w81173100 1.7 10101298
17:00+5wnw8146170 0.1 10111877
20:00+3w61192100 0.3 1012951
23 april, fri
fri2323:00+3w71091100 0.8 10121044
02:00+2wnw7128998 1.1 1013979
05:00+2wnw61296100 0.4 10141052
08:00+4nw6118452 1.5 10151069
11:00+5wnw811665 0.8 10161526
14:00+6wnw812525 1.1 10181705
17:00+5wnw71152100 0.0 10191731
20:00+3wnw5116327 0.1 1019461
24 april, sat
sat2423:00+1wnw38693 0.0 1019191
02:00+2wnw397199 0.0 1019255
05:00+1wsw387073 0.0 1019139
08:00+6wnw595741 0.1 10191360
11:00+7wnw7125070 0.0 10201991
14:00+6wnw7125072 0.1 10201731
17:00+5nw710490 0.0 10201344
20:00+1nw49645 0.0 1021376
25 april, sun
sun2523:000nw377015 0.0 1021153
02:000w337267 0.0 102041
05:000wsw347244 0.0 101967
08:00+4wsw5757100 0.1 1018859
11:00+6nw685395 0.6 10181734
14:00+6wnw795095 0.9 10191906
17:00+5nw79545 0.1 10191539
20:00+1wnw496933 0.1 1019319
26 april, mon
mon2623:00+1wnw366647 0.0 1018160
02:00−1wsw357721 0.0 101797
05:00−1wsw368074 0.0 101694
08:00+4wsw356787 0.0 1016338
11:00+7wnw5645100 0.1 10151820
14:00+8wnw5744100 0.1 10151736
17:00+7nw57465 0.0 10141651
20:00+2wnw35795 0.0 101595